AirNav   Air Wisconsin Up To $57,000 Bonus
 
 366 users online  

0R5 David G Joyce Airport
Winnfield, Louisiana, USA

GOING TO WINNFIELD?


FAA INFORMATION EFFECTIVE 31 DECEMBER 2020

Location

FAA Identifier: 0R5
Lat/Long: 31-57-49.1840N 092-39-36.9380W
31-57.819733N 092-39.615633W
31.9636622,-92.6602606
(estimated)
Elevation: 146 ft. / 44.5 m (surveyed)
Variation: 02E (2010)
From city: 3 miles NW of WINNFIELD, LA
Time zone: UTC -6 (UTC -5 during Daylight Saving Time)
Zip code: 71483

Airport Operations

Airport use: Open to the public
Activation date: 09/1945
Control tower: no
ARTCC: HOUSTON CENTER
FSS: DE RIDDER FLIGHT SERVICE STATION
NOTAMs facility: DRI (NOTAM-D service available)
Attendance: UNATNDD
Wind indicator: yes
Segmented circle: no
Lights: DUSK-DAWN. MIRL RY 09/27 & REIL RYS 09 & 27 PRESET LOW INTST DUSK-DAWN; TO INCR INTST ACTVT - CTAF.
Beacon: white-green (lighted land airport)
ROTG BCN OBSCURED BY TREES SOUTH, WEST AND EAST. Operates sunset to sunrise.

Airport Communications

CTAF/UNICOM: 122.7
POLK APPROACH: 125.4
POLK DEPARTURE: 125.4

Nearby radio navigation aids

VOR radial/distance  VOR name  Freq  Var
SWBr122/1.0SAWMILL VOR/DME113.7502E

 
NDB name  Hdg/Dist  Freq  Var  ID
NATCHITOCHES045/28.140704EOOC --- --- -.-.
RUSTON182/38.936803EROQ .-. --- --.-

Airport Services

Parking: tiedowns
Airframe service: NONE
Powerplant service: NONE
Bottled oxygen: NONE
Bulk oxygen: NONE

Runway Information

Runway 9/27

Dimensions: 3002 x 100 ft. / 915 x 30 m
Surface: asphalt, in good condition
Weight bearing capacity: 
Single wheel: 4.0
Runway edge lights: medium intensity
RUNWAY 9  RUNWAY 27
Latitude: 31-57.817883N31-57.823033N
Longitude: 092-39.906417W092-39.325583W
Elevation: 146.0 ft.118.0 ft.
Traffic pattern: leftleft
Runway heading: 087 magnetic, 089 true267 magnetic, 269 true
Markings: nonprecision, in good conditionnonprecision, in good condition
Visual slope indicator: 2-light PAPI on left (3.00 degrees glide path)2-light PAPI on left (3.45 degrees glide path)
Runway end identifier lights: yesyes
Touchdown point: yes, no lightsyes, no lights
Obstructions: 74 ft. trees, 1775 ft. from runway, 434 ft. left of centerline, 21:1 slope to clear68 ft. trees, 1024 ft. from runway, 124 ft. right of centerline, 12:1 slope to clear

Airport Ownership and Management from official FAA records

Ownership: Publicly-owned
Owner: CITY OF WINNFIELD
PO BOX 509
WINNFIELD, LA 71483
Phone 318-628-3939
Manager: AUNDRA BASS
PO BOX 509
WINNFIELD, LA 71483
Phone (318) 628-3939

Airport Operational Statistics

Aircraft based on the field: 1
Single engine airplanes: 1
    
Aircraft operations: avg 86/week *
56% transient general aviation
44% local general aviation
* for 12-month period ending 19 December 2018

Additional Remarks

FOR CD CTC POLK APCH AT 337-531-2352.

Instrument Procedures

NOTE: All procedures below are presented as PDF files. If you need a reader for these files, you should download the free Adobe Reader.

NOT FOR NAVIGATION. Please procure official charts for flight.
FAA instrument procedures published for use from 31 December 2020 at 0901Z to 28 January 2021 at 0900Z.

 
IAPs - Instrument Approach Procedures
RNAV (GPS) RWY 09   download (203KB)
RNAV (GPS) RWY 27   download (200KB)
NOTE: Special Take-Off Minimums/Departure Procedures apply   download (116KB)

Other nearby airports with instrument procedures:

F88 - Jonesboro Airport (15 nm N)
KIER - Natchitoches Regional Airport (26 nm SW)
0R7 - The Red River Airport (33 nm W)
KRSN - Ruston Regional Airport (33 nm N)
KAEX - Alexandria International Airport (39 nm S)
 
Loc | Ops | Rwys | IFR | FBO | Links
Com | Nav | Svcs | Stats | Notes
Area around 0R5 (David G Joyce Airport)
 
Road maps at: MapQuest Bing Google
 
Aerial photo
WARNING: Photo may not be current or correct
Aerial photo of 0R5 (David G Joyce Airport)
Photo by Gene Greenlees, MD
Taken in June 2010

Do you have a better or more recent aerial photo of David G Joyce Airport that you would like to share? If so, please send us your photo.

 
Sectional chart

 
Airport distance calculator
Flying to David G Joyce Airport? Find the distance to fly.

From to 0R5

Sunrise and sunset
Times for 18-Jan-2021
 Local
(UTC-6)
 Zulu
(UTC)
Morning civil twilight06:4612:46
Sunrise07:1213:12
Sunset17:3123:31
Evening civil twilight17:5723:57

Current date and time
Zulu (UTC)  18-Jan-2021 10:55:03
Local (UTC-6)  18-Jan-2021 04:55:03
 
METAR
KIER 
26nm SW 
181035Z AUTO 00000KT 10SM CLR M02/M04 A3012 RMK AO2 T10201043
KRSN 
33nm N 
181035Z AUTO 00000KT 10SM CLR 00/M04 A3013 RMK AO2 T10051036
KAEX 
38nm S 
180953Z 00000KT 10SM CLR 00/M02 A3010 RMK AO2 SLP199 T00001017
KESF 
39nm SE 
180953Z AUTO 00000KT 10SM CLR M02/M03 A3011 RMK AO2 SLP195 T10171033
KAQV 
44nm SW 
180957Z AUTO 00000KT 10SM CLR M01/M02 A3008 RMK AO2 SLP187 T10061017 $
KMLU 
46nm NE 
180953Z AUTO 20005KT 10SM CLR M01/M03 A3011 RMK AO2 SLP197 T10061028
TAF
KAEX 
38nm S 
180520Z 1806/1906 00000KT P6SM SKC FM181700 17008KT P6SM SKC FM190100 15007KT P6SM SKC
KMLU 
46nm NE 
180532Z 1806/1906 26004KT P6SM SKC FM181500 VRB04KT P6SM SKC FM181800 19007KT P6SM SKC FM190000 17004KT P6SM SCT250 FM190200 17004KT P6SM SCT050 BKN250
NOTAMs
Click for the latest NOTAMs
NOTAMs are issued by the DoD/FAA and will open in a separate window not controlled by AirNav.

 

 
 

Would you like to see your business listed on this page?

 If your business provides an interesting product or service to pilots, flight crews, aircraft, or users of the David G Joyce Airport, you should consider listing it here.  To start the listing process, click on the button below
 
Add a business
 

Other Pages about David G Joyce Airport

Update a link
 
Copyright © AirNav, LLC. All rights reserved. Privacy Policy  Contact